This is the latest recevied weather packets stored in our database for station/object HA3KE-10. If no packets are shown the sender has not sent any weather packets the latest 10 day(s).
| Time | Temp. | Humidity | Pressure | Rain* | Wind** | Luminosity | Snow |
|---|---|---|---|---|---|---|---|
| 1777648779 | 22.22° C | 24% | 1025 hPa | - | - | - | - |
| 1777647879 | 22.78° C | 23% | 1025.1 hPa | - | - | - | - |
| 1777646079 | 21.11° C | 21% | 1025.3 hPa | - | - | - | - |
| 1777645179 | 21.67° C | 22% | 1025.4 hPa | - | - | - | - |
| 1777643378 | 22.22° C | 23% | 1025.5 hPa | - | - | - | - |
| 1777642478 | 21.67° C | 22% | 1025.7 hPa | - | - | - | - |
| 1777641578 | 21.67° C | 21% | 1025.9 hPa | - | - | - | - |
| 1777640678 | 22.22° C | 23% | 1025.8 hPa | - | - | - | - |
| 1777637977 | 21.67° C | 22% | 1026.3 hPa | - | - | - | - |
| 1777637077 | 21.11° C | 22% | 1026.4 hPa | - | - | - | - |
| 1777636177 | 21.11° C | 22% | 1026.5 hPa | - | - | - | - |
| 1777635277 | 21.11° C | 23% | 1026.6 hPa | - | - | - | - |
| 1777634377 | 20.56° C | 24% | 1026.7 hPa | - | - | - | - |
| 1777633477 | 20° C | 23% | 1026.9 hPa | - | - | - | - |
| 1777632576 | 20° C | 23% | 1027 hPa | - | - | - | - |
| 1777631679 | 19.44° C | 23% | 1027.1 hPa | - | - | - | - |
| 1777630779 | 19.44° C | 23% | 1027.3 hPa | - | - | - | - |
| 1777629879 | 18.89° C | 23% | 1027.4 hPa | - | - | - | - |
| 1777628979 | 17.78° C | 24% | 1027.5 hPa | - | - | - | - |
| 1777628078 | 17.78° C | 24% | 1027.5 hPa | - | - | - | - |
| 1777627178 | 17.78° C | 24% | 1027.6 hPa | - | - | - | - |
| 1777626278 | 16.67° C | 25% | 1027.6 hPa | - | - | - | - |
| 1777625378 | 16.67° C | 26% | 1027.7 hPa | - | - | - | - |
| 1777624478 | 16.11° C | 27% | 1027.7 hPa | - | - | - | - |
| 1777623578 | 16.11° C | 27% | 1027.8 hPa | - | - | - | - |
* Rain since midnight (hover to see other rain measurements)
** Current wind speed in m/s (hover to see current wind gust speed)